CST,Max TemperatureF,Mean TemperatureF,Min TemperatureF,Max Dew PointF,MeanDew PointF,Min DewpointF,Max Humidity, Mean Humidity, Min Humidity, Max Sea Level PressureIn, Mean Sea Level PressureIn, Min Sea Level PressureIn, Max VisibilityMiles, Mean VisibilityMiles, Min VisibilityMiles, Max Wind SpeedMPH, Mean Wind SpeedMPH, Max Gust SpeedMPH,PrecipitationIn, CloudCover, Events, WindDirDegrees
2013-2-1,37,24,12,13,8,4,74,50,29,30.44,30.30,30.17,10,10,10,18,8,24,0.00,1,,199
2013-2-2,55,40,26,31,25,14,88,59,35,30.29,30.23,30.16,10,10,10,15,8,18,0.00,1,,292
2013-2-3,57,40,23,28,23,17,78,45,24,30.29,30.09,29.82,10,10,10,24,10,29,0.00,0,,165
2013-2-4,53,42,28,29,27,23,85,57,38,29.97,29.91,29.79,10,10,10,20,9,26,0.00,0,,27
2013-2-5,64,44,25,28,25,21,85,54,22,30.04,29.99,29.92,10,10,8,13,5,,0.00,0,,21
2013-2-6,57,45,33,54,44,26,100,81,55,30.01,29.91,29.82,10,6,0,22,11,30,0.00,7,Fog-Rain,161
2013-2-7,55,46,36,54,41,27,100,77,38,30.22,29.96,29.80,10,7,1,20,11,31,0.06,5,Rain,26
2013-2-8,43,34,26,32,28,24,96,83,62,30.34,30.24,30.13,10,6,0,13,6,,0.00,2,Fog,113
2013-2-9,48,40,33,41,36,29,93,81,66,30.12,29.84,29.60,10,6,1,29,17,36,0.00,6,Rain-Thunderstorm,159
2013-2-10,48,40,32,43,30,22,93,66,39,30.06,29.67,29.44,10,9,3,33,20,44,0.00,3,Rain,256
2013-2-11,46,35,24,23,18,14,78,57,30,30.24,30.17,30.08,10,10,10,13,7,,0.00,1,,332
2013-2-12,41,36,30,27,22,20,88,59,45,30.15,30.08,30.01,10,10,10,7,3,,0.00,6,,258
2013-2-13,57,40,23,25,20,16,92,52,19,30.00,29.94,29.87,10,10,9,18,9,25,0.00,0,,278
2013-2-14,48,39,30,30,24,16,79,58,42,30.32,30.11,29.93,10,10,10,18,9,25,0.00,2,,319
2013-2-15,41,28,16,17,14,10,84,54,32,30.45,30.39,30.33,10,10,10,16,10,26,0.00,2,,336
2013-2-16,52,32,12,27,17,5,81,56,29,30.40,30.19,30.01,10,10,10,23,7,26,0.00,2,,189
2013-2-17,69,45,21,30,25,18,92,53,19,30.00,29.80,29.52,10,9,6,23,5,30,0.00,0,,176
2013-2-18,52,42,27,32,24,16,63,44,32,30.15,29.76,29.40,10,10,10,36,20,50,0.00,1,,334
2013-2-19,44,32,19,16,14,8,78,51,31,30.36,30.26,30.16,10,10,10,15,6,21,0.00,0,,22
2013-2-20,30,26,23,27,18,4,88,73,35,30.26,30.13,30.02,10,4,0,20,14,25,0.04,8,Fog-Snow,103
2013-2-21,24,20,15,21,18,10,88,84,77,30.03,29.82,29.71,10,3,0,20,14,30,0.24,7,Fog-Rain-Snow-Thunderstorm,26
2013-2-22,24,14,3,13,8,1,92,77,62,30.16,30.09,29.90,10,9,0,17,11,,0.00,0,Fog-Snow,295
2013-2-23,34,17,0,24,8,-6,93,81,67,30.14,30.01,29.89,9,4,0,12,3,,0.00,1,Fog,164
2013-2-24,41,28,16,29,24,13,88,72,57,29.92,29.88,29.80,10,9,5,15,9,20,0.00,2,,86
2013-2-25,34,32,30,30,29,27,93,87,75,29.91,29.84,29.75,7,2,0,25,18,37,0.05,8,Fog-Snow,13
2013-2-26,34,30,27,28,25,21,93,81,64,29.96,29.81,29.76,9,5,1,23,18,31,0.00,6,,338
2013-2-27,37,31,25,27,24,20,93,76,57,30.20,30.05,29.93,10,6,1,25,13,33,0.00,4,Snow,321
2013-2-28,34,29,24,26,23,19,81,74,70,30.26,30.24,30.20,10,10,9,17,11,24,0.00,6,,330